This demonstration page uses our WeatherBlox Daily Observations layout. Learn more.

Left ArrowRight Arrow

39.12711, -84.51439

Hourly Observations for August 12, 2018

Temp ( °F °C ) Dew Point ( °F °C ) Humidity (%) Winds ( mph kmh ) Pressure ( in mb ) Visibility ( mi km ) Precip ( " mm )
12:34 am 00:34 Clear with Mist and Fog 67 19.4 67 19.4 100 100 N N/A 30.00 1016 1 1 N/A
12:48 am 00:48 Clear with Mist and Fog 66 19 66 19 100 100 N N/A 30.00 1016 3 4 N/A
12:53 am 00:53 Clear with Mist and Fog 67 19.4 67 19.4 100 100 N N/A 30.02 1017 3 4 N/A
1:05 am 01:05 Clear with Mist and Fog 67 19.4 67 19.4 100 100 N N/A 30.00 1016 5 8 N/A
1:11 am 01:11 Clear with Mist and Fog 66 18.9 66 18.9 100 100 N N/A 30.00 1016 1 2 N/A
1:13 am 01:13 Mostly Cloudy with Mist and Fog 66 18.9 66 18.9 100 100 N N/A 30.03 1017 1 1 N/A
1:25 am 01:25 Mostly Clear with Mist and Fog 67 19.4 67 19.4 100 100 N N/A 30.03 1017 1 2 N/A
1:28 am 01:28 Mostly Clear with Mist and Fog 67 19.4 67 19.4 100 100 N N/A 30.03 1017 3 5 N/A
1:37 am 01:37 Mostly Clear with Mist and Fog 67 19.4 67 19.4 100 100 N N/A 30.03 1017 2 3 N/A
1:41 am 01:41 Mostly Cloudy with Mist and Fog 67 19.4 67 19.4 100 100 N N/A 30.03 1017 1 1 N/A
1:53 am 01:53 Mostly Cloudy with Fog 66 18.9 66 18.9 100 100 N N/A 30.03 1017 0 0 N/A
2:00 am 02:00 Mostly Cloudy with Fog 66 18.9 66 18.9 100 100 N N/A 30.00 1016 1 1 N/A
2:08 am 02:08 Mostly Cloudy with Fog 66 18.9 66 18.9 100 100 N N/A 30.00 1016 0 0 N/A
2:26 am 02:26 Mostly Cloudy with Fog 66 18.9 66 18.9 100 100 NE 3 6 30.00 1016 1 1 N/A
2:34 am 02:34 Mostly Cloudy with Fog 65 18.3 65 18.3 100 100 N N/A 30.00 1016 0 0 N/A
2:53 am 02:53 Mostly Cloudy with Fog 66 18.9 66 18.9 100 100 ENE 3 6 30.03 1017 0 0 N/A
3:53 am 03:53 Mostly Cloudy with Fog 66 18.9 66 18.9 100 100 N N/A 30.04 1017 0 0 N/A
4:53 am 04:53 Mostly Cloudy with Fog 65 18.3 65 18.3 100 100 N 3 6 30.03 1017 0 0 N/A
5:46 am 05:46 Mostly Cloudy with Mist and Fog 64 17.8 64 17.8 100 100 N N/A 30.00 1016 1 2 N/A
5:53 am 05:53 Mostly Cloudy with Mist and Fog 64 17.8 64 17.8 100 100 N N/A 30.04 1017 2 3 N/A
5:59 am 05:59 Mostly Cloudy with Mist and Fog 64 17.8 64 17.8 100 100 N N/A 30.03 1017 1 1 N/A
6:06 am 06:06 Mostly Cloudy with Fog 64 17.8 64 17.8 100 100 N N/A 30.03 1017 0 0 N/A
6:32 am 06:32 Mostly Cloudy with Mist and Fog 63 17.2 63 17.2 100 100 N N/A 30.03 1017 1 2 N/A
6:41 am 06:41 Mostly Cloudy with Fog 63 17.2 63 17.2 100 100 N N/A 30.03 1017 0 0 N/A
6:53 am 06:53 Mostly Cloudy with Fog 64 17.8 64 17.8 100 100 N N/A 30.05 1018 0 0 N/A
7:29 am 07:29 Mostly Cloudy with Fog 63 17.2 63 17.2 100 100 N N/A 30.06 1018 5 8 N/A
7:39 am 07:39 Mostly Cloudy with Fog 64 17.8 64 17.8 100 100 N N/A 30.06 1018 0 0 N/A
7:50 am 07:50 Mostly Cloudy with Mist and Fog 64 18 64 18 100 100 N N/A 30.06 1018 1 1 N/A
7:53 am 07:53 Mostly Cloudy with Mist and Fog 65 18.3 65 18.3 100 100 N N/A 30.07 1018 1 1 N/A
8:05 am 08:05 Partly Cloudy with Mist and Fog 65 18.3 65 18.3 100 100 N N/A 30.06 1018 1 2 N/A
8:53 am 08:53 Partly Cloudy with Mist and Fog 67 19.4 67 19.4 100 100 N N/A 30.08 1019 3 4 N/A
9:02 am 09:02 Partly Cloudy with Mist and Fog 69 20.6 69 20.6 100 100 N N/A 30.06 1018 5 8 N/A
9:53 am 09:53 Sunny 74 23.3 69 20.6 85 85 N N/A 30.09 1019 10 16 N/A
10:53 am 10:53 Sunny 78 25.6 70 21.1 76 76 N N/A 30.10 1019 10 16 N/A
11:53 am 11:53 Sunny 82 27.8 69 20.6 65 65 NE 5 7 30.10 1019 10 16 N/A
12:53 pm 12:53 Mostly Sunny 83 28.3 62 16.7 49 49 NE 8 13 30.09 1019 10 16 N/A
1:53 pm 13:53 Mostly Sunny 83 28.3 64 17.8 53 53 ENE 8 13 30.08 1019 10 16 N/A
2:53 pm 14:53 Mostly Sunny 85 29.4 60 15.6 43 43 NE 7 11 30.06 1018 10 16 N/A
3:53 pm 15:53 Partly Cloudy 82 27.8 60 15.6 47 47 ENE 6 9 30.05 1018 10 16 N/A
4:02 pm 16:02 Mostly Cloudy with Thunderstorms 81 27.2 62 16.7 53 53 NNE 7 11 30.03 1017 10 16 N/A
4:26 pm 16:26 Cloudy with Thunderstorms 73 22.8 66 18.9 79 79 NNW 8 13 30.03 1017 5 8 0.01 0.25
4:34 pm 16:34 Cloudy with Light Rain 75 23.9 67 19.4 76 76 NW 7 11 30.03 1017 10 16 0.01 0.25
4:53 pm 16:53 Mostly Cloudy 80 26.7 70 21.1 71 71 ENE 5 7 30.05 1018 10 16 0.01 0.25
5:53 pm 17:53 Mostly Sunny 84 28.9 64 17.8 51 51 N N/A 30.04 1017 10 16 N/A
6:53 pm 18:53 Sunny 83 28.3 64 17.8 53 53 N N/A 30.04 1017 10 16 N/A
7:53 pm 19:53 Sunny 77 25 68 20 74 74 N N/A 30.03 1017 10 16 N/A
8:53 pm 20:53 Clear 71 21.7 68 20 90 90 N N/A 30.05 1018 10 16 N/A
9:53 pm 21:53 Clear 68 20 66 18.9 93 93 N N/A 30.06 1018 10 16 N/A
10:53 pm 22:53 Clear 66 18.9 66 18.9 100 100 N N/A 30.08 1019 10 16 N/A
11:53 pm 23:53 Clear 67 19.4 66 18.9 97 97 N N/A 30.09 1019 10 16 N/A

Powered by AerisWeather